Quincy, IL

6:55 AM CDT on March 29, 2017 (GMT -0500)
Quincy Regional-Baldwin

Weather History for KUIN - March, 2014

Change the Weather History Date:

Friday, March 28, 2014

  Actual Average Record
Temperature  
Mean Temperature 41 °F 47 °F  
Max Temperature 45 °F 57 °F 84 °F (1985)
Min Temperature 37 °F 37 °F 17 °F (1955)
Degree Days  
Heating Degree Days 24 19  
Month to date heating degree days 830 666  
Since 1 July heating degree days 5724 5008  
Cooling Degree Days 0 0  
Month to date cooling degree days 0 0  
Year to date cooling degree days 0 0  
Moisture  
Dew Point 33 °F    
Average Humidity 75    
Maximum Humidity 85    
Minimum Humidity 65    
Precipitation  
Precipitation 0.00 in 0.09 in 2.27 in (1977)
Month to date precipitation 0.68 2.18  
Year to date precipitation 2.80 5.58  
Sea Level Pressure  
Sea Level Pressure 29.98 in    
Wind  
Wind Speed 9 mph (NNW)    
Max Wind Speed 22 mph    
Max Gust Speed 31 mph    
Visibility 9 miles    
Events      
T = Trace of Precipitation, MM = Missing Value Source: NWS Daily Summary

Daily Weather History Graph

Daily Weather History Graph

Search for Another Location

Airport or City:

Trip Planner

Search our weather history database for the weather conditions in past years. The results will help you decide how hot, cold, wet, or windy it might be!

Date:

Astronomy

Mar. 28, 2014 Rise Set
Actual Time 6:55 AM CDT 7:24 PM CDT
Civil Twilight 6:28 AM CDT 7:52 PM CDT
Nautical Twilight 5:56 AM CDT 8:24 PM CDT
Astronomical Twilight 5:23 AM CDT 8:57 PM CDT
Moon 5:26 AM CDT (3/28) 5:21 PM CDT (3/28)
Length of Visible Light 13h 24m
Length of Day
12h 29m
Waning Crescent, 6% of the Moon is Illuminated
Mar 28
Waning Crescent
Mar 30
New
Apr 7
First Quarter
Apr 15
Full
Apr 22
Last Quarter

Hourly Weather History & Observations

Time (CDT) Temp. Windchill Dew Point Humidity Pressure Visibility Wind Dir Wind Speed Gust Speed Precip Events Conditions
12:54 AM 41.0 °F 31.9 °F 34.0 °F 76% 29.69 in 10.0 mi West 19.6 mph 28.8 mph N/A   Overcast
1:09 AM 39.9 °F 30.2 °F 34.0 °F 79% 29.70 in 10.0 mi West 20.7 mph 31.1 mph N/A   Overcast
1:54 AM 39.9 °F 31.8 °F 34.0 °F 79% 29.74 in 10.0 mi West 15.0 mph 25.3 mph N/A   Overcast
2:36 AM 39.9 °F 31.1 °F 34.0 °F 79% 29.77 in 10.0 mi West 17.3 mph 24.2 mph N/A   Overcast
2:54 AM 39.0 °F 30.3 °F 33.1 °F 79% 29.78 in 10.0 mi West 16.1 mph 28.8 mph N/A   Overcast
3:54 AM 39.0 °F 30.6 °F 33.1 °F 79% 29.81 in 10.0 mi WNW 15.0 mph 20.7 mph N/A   Overcast
4:54 AM 37.9 °F 29.6 °F 33.1 °F 83% 29.84 in 10.0 mi WNW 13.8 mph - N/A   Overcast
5:07 AM 37.9 °F 29.2 °F 33.1 °F 83% 29.84 in 10.0 mi WNW 15.0 mph - N/A   Overcast
5:54 AM 37.9 °F 29.6 °F 33.1 °F 83% 29.90 in 10.0 mi WNW 13.8 mph - N/A   Overcast
6:54 AM 37.9 °F 30.5 °F 33.1 °F 83% 29.93 in 8.0 mi WNW 11.5 mph - N/A   Overcast
7:12 AM 37.9 °F 30.9 °F 33.1 °F 83% 29.92 in 8.0 mi WNW 10.4 mph - N/A   Overcast
7:54 AM 37.9 °F 30.5 °F 33.1 °F 83% 29.95 in 8.0 mi NW 11.5 mph - N/A   Overcast
8:29 AM 37.9 °F 29.6 °F 33.1 °F 83% 29.95 in 7.0 mi NNW 13.8 mph - N/A   Overcast
8:54 AM 37.9 °F 29.6 °F 32.0 °F 79% 29.97 in 8.0 mi NNW 13.8 mph - N/A   Overcast
9:54 AM 37.9 °F 30.0 °F 32.0 °F 79% 30.03 in 9.0 mi NNW 12.7 mph - N/A   Overcast
10:54 AM 39.0 °F 34.8 °F 32.0 °F 76% 30.07 in 10.0 mi NNW 5.8 mph - N/A   Overcast
11:12 AM 39.9 °F 35.1 °F 32.0 °F 73% 30.06 in 10.0 mi North 6.9 mph - N/A   Overcast
11:54 AM 41.0 °F - 32.0 °F 70% 30.08 in 10.0 mi Calm Calm - N/A   Overcast
12:54 PM 42.1 °F - 33.1 °F 70% 30.09 in 10.0 mi Calm Calm - N/A   Overcast
1:54 PM 43.0 °F - 33.1 °F 68% 30.09 in 10.0 mi Calm Calm - N/A   Overcast
2:54 PM 44.1 °F - 33.1 °F 65% 30.09 in 10.0 mi Calm Calm - N/A   Overcast
3:54 PM 44.1 °F 39.5 °F 34.0 °F 68% 30.09 in 10.0 mi NNW 8.1 mph - N/A   Overcast
4:54 PM 43.0 °F 38.8 °F 33.1 °F 68% 30.09 in 10.0 mi North 6.9 mph - N/A   Overcast
5:54 PM 42.1 °F 35.7 °F 34.0 °F 73% 30.10 in 10.0 mi NNE 11.5 mph - N/A   Overcast
6:54 PM 41.0 °F 34.7 °F 33.1 °F 73% 30.12 in 8.0 mi NNE 10.4 mph - N/A   Overcast
7:54 PM 39.9 °F 34.5 °F 33.1 °F 77% 30.13 in 9.0 mi North 8.1 mph - N/A   Overcast
8:54 PM 39.0 °F 33.4 °F 33.1 °F 79% 30.14 in 8.0 mi North 8.1 mph - N/A   Overcast
9:54 PM 39.0 °F 34.8 °F 33.1 °F 79% 30.17 in 8.0 mi NNE 5.8 mph - N/A   Overcast
10:54 PM 37.9 °F 32.7 °F 32.0 °F 79% 30.17 in 7.0 mi NNE 6.9 mph - N/A   Overcast
11:54 PM 37.9 °F 34.4 °F 32.0 °F 79% 30.18 in 7.0 mi NE 4.6 mph - N/A   Overcast